DW7995 Weather Reports


Display with metric or nautical units.
time (UTC)temp
F
wind
direction
speed
MPH
gust
MPH
rain 1hr
in
rain 24hr
in
rain mn
in
humidity
%
barometer
mb
20260509213538 83 93 4.0 11.0 0.00 0.00 0.00 15 1021.2
20260509213102 83 233 1.0 6.0 0.00 0.00 0.00 16 1021.2
20260509212541 82 141 2.0 8.0 0.00 0.00 0.00 16 1021.2
20260509212039 81 65 4.0 8.0 0.00 0.00 0.00 16 1021.2
20260509211612 81 112 3.0 8.0 0.00 0.00 0.00 15 1021.2
20260509211038 83 75 2.0 10.0 0.00 0.00 0.00 16 1021.2
20260509210539 83 90 4.0 10.0 0.00 0.00 0.00 15 1021.2
20260509210048 84 0 1.0 8.0 0.00 0.00 0.00 15 1021.2
20260509205539 84 219 2.0 14.0 0.00 0.00 0.00 15 1021.2
20260509205040 83 129 2.0 14.0 0.00 0.00 0.00 16 1021.2
20260509204600 83 0 1.0 9.0 0.00 0.00 0.00 14 1021.2
20260509204040 83 323 2.0 9.0 0.00 0.00 0.00 14 1021.2
20260509203538 83 285 3.0 9.0 0.00 0.00 0.00 14 1021.2
20260509203056 82 346 1.0 9.0 0.00 0.00 0.00 14 1021.2
20260509202541 83 278 4.0 10.0 0.00 0.00 0.00 15 1021.2
20260509202039 83 77 1.0 10.0 0.00 0.00 0.00 15 1021.2
20260509201550 82 0 1.0 7.0 0.00 0.00 0.00 14 1021.2
20260509201038 82 38 4.0 7.0 0.00 0.00 0.00 14 1021.2
20260509200538 83 136 1.0 12.0 0.00 0.00 0.00 14 1021.2
20260509200052 83 0 1.0 12.0 0.00 0.00 0.00 14 1021.2
20260509195540 83 118 1.0 9.0 0.00 0.00 0.00 13 1021.2
20260509195039 83 75 2.0 9.0 0.00 0.00 0.00 14 1021.2
20260509194553 82 0 2.0 9.0 0.00 0.00 0.00 13 1021.2
20260509194039 82 49 3.0 9.0 0.00 0.00 0.00 13 1021.2
20260509193540 81 60 0.0 6.0 0.00 0.00 0.00 15 1021.2
20260509193045 81 0 2.0 6.0 0.00 0.00 0.00 15 1021.2
20260509192542 82 0 1.0 7.0 0.00 0.00 0.00 15 1021.2
20260509192040 82 0 2.0 11.0 0.00 0.00 0.00 15 1021.2
20260509191549 82 0 6.0 11.0 0.00 0.00 0.00 15 1021.2
20260509191039 82 114 0.0 10.0 0.00 0.00 0.00 16 1021.2
20260509190539 82 56 5.0 10.0 0.00 0.00 0.00 16 1021.2
20260509190052 81 103 4.0 9.0 0.00 0.00 0.00 15 1021.2
20260509185539 81 0 4.0 12.0 0.00 0.01 0.00 15 1021.2
20260509185039 81 27 3.0 12.0 0.00 0.01 0.00 15 1021.2
20260509184548 81 42 2.0 11.0 0.00 0.01 0.00 16 1021.2
20260509184038 81 95 5.0 15.0 0.00 0.01 0.00 16 1021.2
20260509183538 81 338 3.0 15.0 0.00 0.01 0.00 16 1021.2
20260509183047 81 317 4.0 7.0 0.00 0.01 0.00 15 1021.2
20260509182539 81 70 1.0 4.0 0.00 0.01 0.00 16 1021.2
20260509182040 80 0 0.0 6.0 0.00 0.01 0.00 16 1021.2
20260509181559 80 0 0.0 6.0 0.00 0.01 0.00 16 1021.2
20260509181039 80 76 3.0 6.0 0.00 0.01 0.00 16 1021.2
20260509180540 80 349 1.0 9.0 0.00 0.01 0.00 15 1021.2
20260509180043 80 78 0.0 9.0 0.00 0.01 0.00 17 1021.2
20260509175539 80 119 3.0 9.0 0.00 0.01 0.00 16 1021.2
20260509175043 80 278 0.0 9.0 0.00 0.01 0.00 16 1021.2
20260509174551 80 129 1.0 9.0 0.00 0.01 0.00 16 1021.2
20260509174039 80 74 1.0 5.0 0.00 0.01 0.00 17 1021.2
20260509173538 79 0 0.0 9.0 0.00 0.01 0.00 16 1021.2
20260509173047 79 84 1.0 9.0 0.00 0.01 0.00 16 1021.2
20260509172538 79 103 2.0 6.0 0.00 0.01 0.00 16 1021.2
20260509172040 78 257 0.0 8.0 0.00 0.01 0.00 17 1021.2
20260509171607 77 114 4.0 8.0 0.00 0.01 0.00 18 1021.2
20260509171040 77 0 1.0 6.0 0.00 0.01 0.00 18 1021.2
20260509170539 78 114 0.0 5.0 0.00 0.01 0.00 19 1021.2
20260509170050 77 201 2.0 5.0 0.00 0.01 0.00 18 1021.2
20260509165540 77 214 0.0 5.0 0.00 0.01 0.00 20 1021.2
20260509165040 77 152 1.0 7.0 0.00 0.01 0.00 19 1021.2
20260509164551 76 0 2.0 7.0 0.00 0.01 0.00 20 1021.2
20260509164040 76 77 1.0 6.0 0.00 0.01 0.00 20 1021.2
20260509163541 76 68 1.0 6.0 0.00 0.01 0.00 19 1021.2
20260509163059 76 0 3.0 6.0 0.00 0.01 0.00 19 1021.2
20260509162540 76 68 3.0 6.0 0.00 0.01 0.00 20 1021.2
20260509162039 76 0 2.0 7.0 0.00 0.01 0.00 20 1021.2
20260509161554 75 193 2.0 8.0 0.00 0.01 0.00 21 1021.2
20260509161038 75 49 3.0 8.0 0.00 0.01 0.00 21 1021.2
20260509160539 75 103 2.0 6.0 0.00 0.01 0.00 21 1021.2
20260509160057 75 188 3.0 8.0 0.00 0.01 0.00 22 1021.2
20260509155539 76 84 2.0 8.0 0.00 0.01 0.00 23 1021.2
20260509155041 75 207 1.0 6.0 0.00 0.01 0.00 23 1021.2
20260509154553 75 0 2.0 6.0 0.00 0.01 0.00 23 1021.2
20260509154038 75 153 1.0 6.0 0.00 0.01 0.00 23 1021.2
20260509153538 74 135 1.0 5.0 0.00 0.01 0.00 23 1021.2
20260509153053 74 84 1.0 7.0 0.00 0.01 0.00 23 1021.2
20260509152539 73 149 2.0 7.0 0.00 0.01 0.00 23 1021.2
20260509152039 73 155 2.0 7.0 0.00 0.01 0.00 23 1021.2
20260509151552 74 89 2.0 7.0 0.00 0.01 0.00 24 1021.2
20260509151039 73 0 0.0 7.0 0.00 0.01 0.00 23 1021.2
20260509150539 73 134 3.0 7.0 0.00 0.01 0.00 23 1021.2
20260509150044 73 98 1.0 6.0 0.00 0.01 0.00 23 1021.2
20260509145540 73 67 2.0 6.0 0.00 0.01 0.00 24 1021.2
20260509145040 74 0 1.0 5.0 0.00 0.01 0.00 25 1021.2
20260509144552 74 143 0.0 1.0 0.00 0.01 0.00 26 1021.2
20260509144040 73 0 0.0 1.0 0.00 0.01 0.00 26 1021.2
20260509143539 73 0 0.0 0.0 0.00 0.01 0.00 26 1021.2
20260509143053 72 0 0.0 0.0 0.00 0.01 0.00 27 1021.2
20260509142538 71 0 0.0 0.0 0.00 0.01 0.00 28 1021.2
20260509142038 70 0 0.0 0.0 0.00 0.01 0.00 29 1021.2
20260509141554 69 0 0.0 0.0 0.00 0.01 0.00 29 1021.2
20260509141040 69 0 0.0 0.0 0.00 0.01 0.00 29 1021.2
20260509140538 68 0 0.0 0.0 0.00 0.01 0.00 30 1021.2
20260509140058 66 0 0.0 0.0 0.00 0.01 0.00 32 1021.2
20260509135539 66 0 0.0 0.0 0.00 0.01 0.00 32 1021.2
20260509135039 66 0 0.0 0.0 0.00 0.01 0.00 33 1021.2
20260509134554 65 0 0.0 0.0 0.00 0.01 0.00 34 1021.2
20260509134040 64 0 0.0 0.0 0.00 0.01 0.00 36 1021.2
20260509133543 61 0 0.0 0.0 0.00 0.01 0.00 42 1021.2
20260509133059 59 0 0.0 0.0 0.00 0.01 0.00 45 1021.2
20260509132540 56 0 0.0 0.0 0.00 0.01 0.00 52 1021.2
20260509132040 55 0 0.0 0.0 0.00 0.01 0.00 52 1021.2
20260509131544 54 0 0.0 0.0 0.00 0.01 0.00 56 1021.2
20260509131043 50 0 0.0 0.0 0.00 0.01 0.00 62 1021.2
20260509130539 47 0 0.0 0.0 0.00 0.01 0.00 64 1021.2
20260509130044 44 0 0.0 0.0 0.00 0.01 0.00 68 1021.2
20260509125539 42 0 0.0 0.0 0.00 0.01 0.00 68 1021.2
20260509125038 41 0 0.0 0.0 0.00 0.01 0.00 70 1021.2
20260509124551 40 0 0.0 0.0 0.00 0.01 0.00 70 1021.2
20260509124039 38 0 0.0 0.0 0.00 0.01 0.00 73 1021.2
20260509123539 37 0 0.0 0.0 0.00 0.01 0.00 74 1021.2
20260509123048 35 0 0.0 0.0 0.00 0.01 0.00 75 1021.2
20260509122539 35 0 0.0 0.0 0.00 0.01 0.00 75 1021.2
20260509122042 35 0 0.0 0.0 0.00 0.01 0.00 74 1021.2
20260509121547 35 0 0.0 0.0 0.00 0.01 0.00 74 1021.2
20260509121042 34 0 0.0 0.0 0.00 0.01 0.00 75 1021.2
20260509120539 35 0 0.0 0.0 0.00 0.01 0.00 74 1021.2
20260509120048 35 0 0.0 0.0 0.00 0.01 0.00 74 1021.2
20260509115538 35 0 0.0 0.0 0.00 0.01 0.00 74 1021.2
20260509115038 35 0 0.0 0.0 0.00 0.01 0.00 74 1021.2
20260509114555 35 0 0.0 0.0 0.00 0.01 0.00 74 1021.2
20260509114040 35 0 0.0 0.0 0.00 0.01 0.00 74 1021.2
20260509113540 35 0 0.0 0.0 0.00 0.01 0.00 74 1021.2
20260509113050 35 0 0.0 0.0 0.00 0.01 0.00 74 1021.2
20260509112539 35 0 0.0 0.0 0.00 0.01 0.00 73 1021.2
20260509112039 36 0 0.0 0.0 0.00 0.01 0.00 72 1021.2
20260509111546 36 0 0.0 0.0 0.00 0.01 0.00 73 1021.2
20260509111040 36 0 0.0 0.0 0.00 0.01 0.00 73 1021.2
20260509110540 36 0 0.0 0.0 0.00 0.01 0.00 72 1021.2
20260509110050 37 0 0.0 0.0 0.00 0.01 0.00 71 1021.2
20260509105539 37 0 0.0 0.0 0.00 0.01 0.00 71 1021.2
20260509105039 37 0 0.0 0.0 0.00 0.01 0.00 70 1021.2
20260509104548 37 0 0.0 0.0 0.00 0.01 0.00 69 1021.2
20260509104039 37 0 0.0 0.0 0.00 0.01 0.00 70 1021.2
20260509103539 37 0 0.0 0.0 0.00 0.01 0.00 72 1021.2
20260509103047 36 0 0.0 0.0 0.00 0.01 0.00 73 1021.2
20260509102539 36 0 0.0 0.0 0.00 0.01 0.00 73 1021.2
20260509102039 36 0 0.0 0.0 0.00 0.01 0.00 74 1021.2
20260509101549 36 0 0.0 0.0 0.00 0.01 0.00 73 1021.2
20260509101040 36 0 0.0 0.0 0.00 0.01 0.00 73 1021.2
20260509100540 36 0 0.0 0.0 0.00 0.01 0.00 73 1021.2
20260509100101 36 0 0.0 0.0 0.00 0.01 0.00 73 1021.2
20260509095540 36 0 0.0 0.0 0.00 0.01 0.00 73 1021.2
20260509095038 36 0 0.0 0.0 0.00 0.01 0.00 72 1021.2
20260509094546 37 0 0.0 0.0 0.00 0.01 0.00 72 1021.2
20260509094040 37 0 0.0 0.0 0.00 0.01 0.00 72 1021.2
20260509093539 36 0 0.0 0.0 0.00 0.01 0.00 73 1021.2
20260509093051 36 0 0.0 0.0 0.00 0.01 0.00 72 1021.2
20260509092539 36 0 0.0 0.0 0.00 0.01 0.00 73 1021.2
20260509092039 36 0 0.0 0.0 0.00 0.01 0.00 72 1021.2
20260509091551 36 0 0.0 0.0 0.00 0.01 0.00 72 1021.2
20260509091039 36 0 0.0 0.0 0.00 0.01 0.00 72 1021.2
20260509090539 36 0 0.0 0.0 0.00 0.01 0.00 71 1021.2
20260509090049 37 0 0.0 0.0 0.00 0.01 0.00 71 1021.2
20260509085538 37 0 0.0 0.0 0.00 0.01 0.00 71 1021.2
20260509085038 37 0 0.0 0.0 0.00 0.01 0.00 71 1021.2
20260509084551 37 0 0.0 0.0 0.00 0.01 0.00 71 1021.2
20260509084040 37 0 0.0 0.0 0.00 0.01 0.00 70 1021.2
20260509083538 37 0 0.0 0.0 0.00 0.01 0.00 69 1021.2
20260509083054 38 0 0.0 0.0 0.00 0.01 0.00 69 1021.2
20260509082538 38 0 0.0 0.0 0.00 0.01 0.00 68 1021.2
20260509082040 38 0 0.0 0.0 0.00 0.01 0.00 68 1021.2
20260509081552 38 0 0.0 0.0 0.00 0.01 0.00 67 1021.2
20260509081039 39 0 0.0 0.0 0.00 0.01 0.00 67 1021.2
20260509080539 39 0 0.0 0.0 0.00 0.01 0.00 67 1021.2
20260509080129 39 0 0.0 0.0 0.00 0.01 0.00 66 1021.2
20260509075543 39 0 0.0 0.0 0.00 0.01 0.00 66 1021.2
20260509075039 39 0 0.0 0.0 0.00 0.01 0.00 66 1021.2
20260509074551 39 0 0.0 0.0 0.00 0.01 0.00 66 1021.2
20260509074040 39 0 0.0 0.0 0.00 0.01 0.00 65 1021.2
20260509073539 40 0 0.0 0.0 0.00 0.01 0.00 64 1021.2
20260509073137 40 0 0.0 0.0 0.00 0.01 0.00 65 1021.2
20260509072540 40 0 0.0 0.0 0.00 0.01 0.00 64 1021.2
20260509072039 41 0 0.0 0.0 0.00 0.01 0.00 63 1021.2
20260509071546 41 0 0.0 0.0 0.00 0.01 0.00 63 1021.2
20260509071038 41 0 0.0 0.0 0.00 0.01 0.00 62 1021.2
20260509070539 42 0 0.0 0.0 0.00 0.01 0.00 60 1021.2
20260509070047 42 0 0.0 0.0 0.00 0.01 0.00 59 1021.2
20260509065539 43 0 0.0 0.0 0.00 0.01 0.00 59 1021.2
20260509065039 43 0 0.0 0.0 0.00 0.01 0.00 58 1021.2
20260509064548 43 0 0.0 0.0 0.00 0.01 0.00 58 1021.2
20260509064039 44 0 0.0 0.0 0.00 0.01 0.00 57 1021.2
20260509063538 44 0 0.0 0.0 0.00 0.01 0.00 56 1021.2
20260509063045 44 0 0.0 0.0 0.00 0.01 0.00 57 1021.2
20260509062539 44 0 0.0 0.0 0.00 0.01 0.00 57 1021.2
20260509062040 43 0 0.0 0.0 0.00 0.01 0.00 57 1021.2
20260509061558 43 0 0.0 0.0 0.00 0.01 0.00 58 1021.2
20260509061039 43 0 0.0 0.0 0.00 0.01 0.00 59 1021.2
20260509060542 43 0 0.0 0.0 0.00 0.01 0.00 59 1021.2
20260509060051 43 0 0.0 0.0 0.00 0.01 0.00 58 1021.2
20260509055539 43 0 0.0 0.0 0.00 0.01 0.00 59 1021.2
20260509055038 43 0 0.0 0.0 0.00 0.01 0.00 58 1021.2
20260509054549 43 0 0.0 0.0 0.00 0.01 0.00 58 1021.2
20260509054038 43 0 0.0 0.0 0.00 0.01 0.00 59 1021.2
20260509053543 43 0 0.0 0.0 0.00 0.01 0.00 58 1021.2
20260509053050 44 0 0.0 0.0 0.00 0.01 0.00 57 1021.2
20260509052540 44 0 0.0 0.0 0.00 0.01 0.00 56 1021.2
20260509052039 44 0 0.0 0.0 0.00 0.01 0.00 56 1021.2
20260509051556 44 0 0.0 0.0 0.00 0.01 0.00 56 1021.2
20260509051039 44 0 0.0 0.0 0.00 0.01 0.00 56 1021.2
20260509050539 43 0 0.0 0.0 0.00 0.01 0.00 58 1021.2
20260509050045 42 0 0.0 0.0 0.00 0.01 0.00 63 1021.2
20260509045539 42 0 0.0 0.0 0.00 0.01 0.01 62 1021.2
20260509045039 43 0 0.0 0.0 0.00 0.01 0.01 62 1021.2
20260509044542 43 0 0.0 0.0 0.00 0.01 0.01 61 1021.2
20260509044039 43 0 0.0 0.0 0.00 0.01 0.01 62 1021.2
20260509043539 43 0 0.0 0.0 0.00 0.01 0.01 61 1021.2
20260509043053 43 0 0.0 0.0 0.00 0.01 0.01 61 1021.2
20260509042541 44 0 0.0 0.0 0.00 0.01 0.01 61 1021.2
20260509042040 44 0 0.0 0.0 0.00 0.01 0.01 60 1021.2
20260509041547 44 0 0.0 0.0 0.00 0.01 0.01 61 1021.2
20260509041038 44 0 0.0 0.0 0.00 0.01 0.01 60 1021.2
20260509040539 45 0 0.0 0.0 0.00 0.01 0.01 61 1021.2
20260509040101 44 0 0.0 0.0 0.00 0.01 0.01 60 1021.2
20260509035539 45 0 0.0 0.0 0.00 0.01 0.01 60 1021.2
20260509035040 45 0 0.0 0.0 0.00 0.01 0.01 60 1021.2
20260509034546 45 0 0.0 0.0 0.00 0.01 0.01 60 1021.2
20260509034039 46 0 0.0 0.0 0.00 0.01 0.01 60 1021.2
20260509033539 46 0 0.0 0.0 0.00 0.01 0.01 60 1021.2
20260509033044 46 0 0.0 0.0 0.00 0.01 0.01 59 1021.2
20260509032538 46 0 0.0 0.0 0.00 0.01 0.01 59 1021.2
20260509032038 47 0 0.0 0.0 0.00 0.01 0.01 58 1021.2
20260509031546 48 0 0.0 0.0 0.00 0.01 0.01 57 1021.2
20260509031040 48 0 0.0 0.0 0.00 0.01 0.01 56 1021.2
20260509030539 49 0 0.0 0.0 0.00 0.01 0.01 55 1021.2
20260509030049 49 0 0.0 0.0 0.00 0.01 0.01 54 1021.2
20260509025539 51 0 0.0 0.0 0.00 0.01 0.01 52 1021.2
20260509025039 52 0 0.0 0.0 0.00 0.01 0.01 51 1021.2
20260509024547 51 0 0.0 0.0 0.00 0.01 0.01 53 1021.2
20260509024040 51 0 0.0 0.0 0.00 0.01 0.01 53 1021.2
20260509023541 52 0 0.0 0.0 0.00 0.01 0.01 53 1021.2
20260509023050 53 0 0.0 0.0 0.00 0.01 0.01 51 1021.2
20260509022540 54 0 0.0 0.0 0.00 0.01 0.01 49 1021.2
20260509022039 56 0 0.0 0.0 0.00 0.01 0.01 47 1021.2
20260509021552 58 0 0.0 1.0 0.00 0.01 0.01 46 1021.2
20260509021040 59 0 0.0 1.0 0.00 0.01 0.01 44 1021.2
20260509020539 59 0 0.0 4.0 0.00 0.01 0.01 44 1021.2
20260509020049 60 0 0.0 4.0 0.00 0.01 0.01 44 1021.2
20260509015539 60 0 0.0 9.0 0.00 0.01 0.01 44 1021.2
20260509015040 61 216 1.0 9.0 0.00 0.01 0.01 44 1021.2
20260509014549 60 209 4.0 8.0 0.00 0.01 0.01 44 1021.2
20260509014042 60 237 2.0 7.0 0.00 0.01 0.01 45 1021.2
20260509013540 60 0 0.0 0.0 0.00 0.01 0.01 45 1021.2
20260509013059 61 0 0.0 0.0 0.00 0.01 0.01 44 1021.2
20260509012538 62 0 0.0 0.0 0.00 0.01 0.01 43 1021.2
20260509012039 62 0 0.0 0.0 0.00 0.01 0.01 42 1021.2
20260509011547 63 0 0.0 0.0 0.00 0.01 0.01 42 1021.2
20260509011039 64 0 0.0 1.0 0.00 0.01 0.01 40 1021.2
20260509010539 64 0 0.0 1.0 0.00 0.01 0.01 39 1021.2
20260509010044 64 0 0.0 4.0 0.00 0.01 0.01 41 1021.2
20260509005539 65 228 1.0 7.0 0.00 0.01 0.01 40 1021.2
20260509005039 65 0 2.0 7.0 0.00 0.01 0.01 40 1021.2
20260509004607 66 206 0.0 5.0 0.00 0.01 0.01 40 1021.2
20260509004040 65 0 0.0 7.0 0.00 0.01 0.01 41 1021.2
20260509003539 64 0 4.0 7.0 0.00 0.01 0.01 41 1021.2
20260509003051 63 0 1.0 6.0 0.00 0.01 0.01 44 1021.2
20260509002540 62 0 2.0 6.0 0.00 0.01 0.01 46 1021.2
20260509002039 62 0 0.0 3.0 0.00 0.01 0.01 47 1021.2
20260509001547 61 0 0.0 6.0 0.00 0.01 0.01 48 1021.2
20260509001042 61 0 1.0 11.0 0.00 0.01 0.01 50 1021.2
20260509000538 61 336 0.0 11.0 0.00 0.01 0.01 50 1021.2
20260509000047 61 63 4.0 11.0 0.00 0.01 0.01 50 1021.2
20260508235543 62 124 1.0 10.0 0.00 0.01 0.01 49 1021.2
20260508235040 62 58 2.0 12.0 0.00 0.01 0.01 49 1021.2
20260508234547 62 0 2.0 12.0 0.00 0.01 0.01 49 1021.2
20260508234040 62 105 6.0 12.0 0.00 0.01 0.01 48 1021.2
20260508233540 62 326 3.0 19.0 0.00 0.01 0.01 48 1021.2
20260508233059 62 150 5.0 19.0 0.00 0.01 0.01 50 1021.2
20260508232539 61 56 9.0 18.0 0.00 0.01 0.01 49 1021.2
20260508232040 62 8 5.0 17.0 0.00 0.01 0.01 49 1021.2
20260508231545 62 87 6.0 17.0 0.00 0.01 0.01 49 1021.2
20260508231038 62 11 5.0 13.0 0.00 0.01 0.01 49 1021.2
20260508230539 62 49 5.0 12.0 0.00 0.01 0.01 49 1021.2
20260508230055 62 65 6.0 14.0 0.00 0.01 0.01 48 1021.2
20260508225540 62 63 8.0 14.0 0.00 0.01 0.01 48 1021.2
20260508225043 62 71 4.0 13.0 0.00 0.01 0.01 48 1021.2
20260508224550 62 74 5.0 13.0 0.00 0.01 0.01 48 1021.2
20260508224039 63 107 4.0 13.0 0.00 0.01 0.01 47 1021.2
20260508223539 63 183 4.0 13.0 0.00 0.01 0.01 46 1021.2
20260508223046 63 65 3.0 11.0 0.00 0.01 0.01 46 1021.2
20260508222542 63 56 0.0 10.0 0.00 0.01 0.01 46 1021.2
20260508222040 63 56 1.0 8.0 0.00 0.01 0.01 46 1021.2
20260508221551 62 0 4.0 9.0 0.00 0.01 0.01 46 1021.2
20260508221041 62 135 2.0 9.0 0.00 0.01 0.01 47 1021.2
20260508220539 61 233 1.0 14.0 0.00 0.01 0.01 49 1021.2
20260508220053 62 221 1.0 14.0 0.00 0.01 0.01 48 1021.2
20260508215542 62 0 3.0 14.0 0.00 0.01 0.01 48 1021.2
20260508215039 62 146 0.0 8.0 0.00 0.01 0.01 48 1021.2
20260508214550 62 0 0.0 15.0 0.00 0.01 0.01 47 1021.2
20260508214039 62 309 2.0 26.0 0.00 0.01 0.01 48 1021.2